Volver al catálogo

OPS 8314 (2)

ActivoMilitarPO
NORAD 6822·PAYLOAD·🇺🇸 United States

Lanzado Oct 10, 1972 desde Vandenberg Space Force Base

Loading…

Próximos Pases (próximas 24 horas)

TLE

ActualizadoSource: Space-Track

Época: Sep 14, 2026, 11:08 UTC

1 06822U 72079C   26257.46441356 -.00000024  00000-0 -67695-4 0  9993
2 06822  95.6362  69.6570 0028542 255.0973 118.5092 12.55632515470918

Sigue OPS 8314 (2) en tiempo real con AllMySat

Download on the App Store